{"data":{"norad_id":54164,"intl_designator":"2022-141H","name":"STARLINK-5278","alt_names":[],"object_type":"PAYLOAD","status":"ACTIVE","operator":null,"country":"US","launch_date":"2022-10-28","launch_site_code":"AFWTR","launch_vehicle":null,"mission":null,"orbit_class":"UNKNOWN","rcs_meters":null,"size_class":null,"mass_kg":null,"dimensions":null,"purposes":["comms"],"wikipedia_slug":null,"has_3d_model":false,"image_url":null,"decayed_at":null,"tle_current":{"epoch":"2026-05-25T01:23:11.270976Z","epoch_age_seconds":60336,"freshness":"FRESH","line1":"1 54164U 22141H   26145.05776934  .00000375  00000+0  41615-4 0  9994","line2":"2 54164  53.2131  21.4989 0001136  93.5716 266.5406 15.08841208197386","mean_motion":15.08841208,"eccentricity":0.0001136,"inclination_deg":53.2131,"raan_deg":21.4989,"arg_perigee_deg":93.5716,"mean_anomaly_deg":266.5406,"bstar":4.1615e-5,"rev_number":19738,"period_min":95.437478269085,"perigee_km":538.9538258011,"apogee_km":540.52556738657,"semimajor_km":6917.8766965938,"source":"CELESTRAK","updated_at":"2026-05-25T13:38:17.660521Z"}}}